Home > Weather > Monticello > Past weeks

Flag for USA Past Weather in Monticello, Kentucky, USA — Yesterday and Last 2 Weeks

Now
88 °F

Passing clouds.


Feels Like: 92 °F
Forecast: 71 / 91 °F
Wind: 5 mph from Southeast

Location: London-Corbin Airport-Magee Field

Current Time: Aug 26, 2016 at 2:53:25 PM

Latest Report: Aug 26, 2016 at 1:53 PM


Visibility: 10 mi

Pressure: 30.11 "Hg

Humidity: 52%

Dew Point: 68 °F

Location of MonticelloLocation

Past Weather in Monticello — Graph

°F

Monticello Temperature Yesterday

Maximum temperature yesterday: 90 °F (at 4:53 PM)
Minimum temperature yesterday: 69 °F (at 6:53 AM)
Average temperature yesterday: 79 °F

High & Low Weather Summary for the Past Weeks

 TemperatureHumidityPressure
High90 °F (Aug 12, 2:53 PM)97% (Aug 22, 7:53 AM)30.28 "Hg (Aug 22, 7:53 AM)
Low57 °F (Aug 22, 6:53 AM)39% (Aug 23, 2:53 PM)29.80 "Hg (Aug 20, 3:53 PM)
Average75 °F77%30.07 "Hg
* Reported Aug 11 12:53 PM — Aug 26 12:53 PM, Monticello, Weather by CustomWeather, © 2016

Note: Actual official high and low records may vary slightly from our data, if they occured in-between our weather recording intervals... More about our weather records

Advertising

Monticello Weather History for the Previous 24 Hours

Scroll right to see more
 ConditionsComfort  
Time TempWeatherWind HumidityBarometerVisibility
12:53 PM
Fri, Aug 26
87 °FPassing clouds.No wind53%30.14 "Hg10 mi
11:53 AM85 °FSunny.No wind61%30.15 "Hg10 mi
10:53 AM83 °FSunny.3 mph65%30.15 "Hg10 mi
9:53 AM79 °FSunny.3 mph79%30.14 "Hg10 mi
8:53 AM75 °FSunny.No wind90%30.14 "Hg8 mi
8:01 AM71 °FFog.N/A93%30.18 "Hg5 mi
6:53 AM70 °FFog.No wind90%30.12 "Hg6 mi
5:53 AM71 °FPassing clouds.No wind93%30.11 "Hg8 mi
4:58 AM71 °FFog.No wind93%30.15 "Hg1 mi
4:04 AM72 °FFog.No wind91%30.15 "Hg4 mi
3:53 AM72 °FFog.No wind91%30.10 "Hg2 mi
3:04 AM72 °FFog.3 mph91%30.15 "Hg6 mi
2:56 AM72 °FFog.No wind91%30.15 "Hg2 mi
1:53 AM73 °FClear.No wind90%30.10 "Hg9 mi
12:53 AM74 °FClear.No wind88%30.10 "Hg7 mi
11:53 PM
Thu, Aug 25
75 °FClear.No wind88%30.09 "Hg10 mi
10:53 PM76 °FClear.No wind88%30.09 "Hg10 mi
9:53 PM76 °FClear.No wind88%30.09 "Hg10 mi
8:53 PM80 °FSunny.No wind76%30.07 "Hg10 mi
7:53 PM86 °FSunny.No wind59%30.07 "Hg10 mi
6:53 PM88 °FSunny.5 mph54%30.08 "Hg10 mi
5:53 PM89 °FSunny.9 mph50%30.08 "Hg10 mi
4:53 PM90 °FSunny.9 mph50%30.09 "Hg10 mi
3:53 PM89 °FSunny.9 mph50%30.09 "Hg10 mi
2:53 PM89 °FPassing clouds.12 mph52%30.11 "Hg10 mi
Weather by CustomWeather, © 2016

See weather overviewHow to use our weather pages